Meteo18 Weather Cam more information Meteo18 Weather Cam


Thunder radar more information blitzortung!


Rain radar more information rain snow radar



Select another period ( hide this area )

Units Period Custom range Directly to
Metric English Both
Daily Weekly Monthly Yearly
use both date-selectors for a custom range
previous Day
With this date

WeatherUnderground graphs for this period ( click here )


Daily Summary for Saturday 15 December 2018
Time Temp. ( °C ) Dew pt. ( °C ) Wind ( km/h ) from Gust ( km/h ) Pressure ( hPa ) Humid.( % ) Rainrate ( cm )
High-1,9 -3,3 1,4 West ( 1/6 ) 1,6 1023,2 95 -
Average-3,6 -4,6 0,1 Calm #51/55 0,3 1023,0 93 -
Low-4,8 -5,6 -   0,0 1022,9 90 -
Daily Tabular details for Saturday 15 December 2018
Time Temp. ( °C ) Dew pt. ( °C ) Wind ( km/h ) from Gust ( km/h ) Pressure ( hPa ) Humid.( % ) Rainrate ( cm )
00:04 -1,9 -3,3   Calm   1023,2 90 -
00:08 -1,9 -3,3   Calm   1023,2 90 -
00:14 -2,0 -3,4   Calm   1023,2 90 -
00:18 -2,1 -3,5   Calm   1022,9 90 -
00:24 -2,1 -3,4   Calm   1022,9 91 -
00:28 -2,1 -3,4   Calm   1022,9 91 -
00:34 -2,2 -3,5   Calm   1023,2 91 -
00:38 -2,2 -3,5   Calm   1022,9 91 -
00:44 -2,4 -3,7   Calm   1023,2 91 -
00:48 -2,4 -3,7   Calm 1,6 1023,2 91 -
00:54 -2,6 -3,7   Calm 1,6 1023,2 92 -
00:58 -2,6 -3,7   Calm   1022,9 92 -
01:04 -2,7 -3,8   Calm   1022,9 92 -
01:08 -2,7 -3,8 1,4 West 1,6 1022,9 92 -
01:14 -2,8 -3,9   Calm   1023,2 92 -
01:18 -2,8 -3,9   Calm   1022,9 92 -
01:24 -3,0 -4,1   Calm   1022,9 92 -
01:28 -3,1 -4,2   Calm   1023,2 92 -
01:34 -3,2 -4,2   Calm   1023,2 93 -
01:38 -3,1 -4,1   Calm   1023,2 93 -
01:44 -3,1 -4,1   Calm   1023,2 93 -
01:48 -3,1 -4,1   Calm   1023,2 93 -
01:54 -3,3 -4,4   Calm 1,6 1023,2 92 -
01:58 -3,4 -4,5   Calm   1023,2 92 -
02:04 -3,6 -4,6   Calm   1023,2 93 -
02:08 -3,6 -4,6   Calm   1023,2 93 -
02:14 -3,6 -4,6   Calm   1023,2 93 -
02:18 -3,7 -4,7   Calm 1,6 1023,2 93 -
02:24 -3,9 -4,9   Calm   1023,2 93 -
02:28 -3,9 -4,9   Calm   1022,9 93 -
02:32 -3,9 -4,9   Calm   1022,9 93 -
02:39 -3,9 -4,7   Calm   1022,9 94 -
02:43 -3,9 -4,7   Calm 1,6 1022,9 94 -
02:49 -4,1 -5,1   Calm   1022,9 93 -
02:53 -4,2 -5,2   Calm 1,6 1022,9 93 -
02:59 -4,3 -5,1   Calm   1022,9 94 -
03:03 -4,3 -5,1   Calm   1022,9 94 -
03:09 -4,3 -5,1   Calm   1022,9 94 -
03:13 -4,4 -5,2   Calm 1,6 1022,9 94 -
03:19 -4,5 -5,3   Calm   1022,9 94 -
03:23 -4,5 -5,3   Calm 1,6 1022,9 94 -
03:29 -4,5 -5,3   Calm   1022,9 94 -
03:33 -4,7 -5,5   Calm   1022,9 94 -
03:39 -4,7 -5,5   Calm   1022,9 94 -
03:43 -4,8 -5,6 1,4 WNW 1,6 1023,2 94 -
03:49 -4,7 -5,4   Calm   1022,9 95 -
03:53 -4,5 -5,2   Calm   1022,9 95 -
03:59 -4,3 -5,0   Calm   1022,9 95 -
04:03 -4,5 -5,3   Calm   1022,9 94 -
04:09 -4,7 -5,5   Calm   1022,9 94 -
04:13 -4,7 -5,5 1,4 North 1,6 1022,9 94 -
04:19 -4,7 -5,4   Calm   1022,9 95 -
04:23 -4,7 -5,4   Calm   1022,9 95 -
04:29 -4,6 -5,3 1,4 NNW 1,6 1022,9 95 -
04:33 -4,7 -5,4   Calm   1022,9 95 -
Daily Summary for Saturday 15 December 2018
Time Temp. ( °C ) Dew pt. ( °C ) Wind ( km/h ) from Gust ( km/h ) Pressure ( hPa ) Humid.( % ) Rainrate ( cm )
High-1,9 -3,3 1,4 West ( 1/6 ) 1,6 1023,2 95 -
Average-3,6 -4,6 0,1 Calm #51/55 0,3 1023,0 93 -
Low-4,8 -5,6 -   0,0 1022,9 90 -
Daily Tabular details for Saturday 15 December 2018
Time Temp. ( °C ) Dew pt. ( °C ) Wind ( km/h ) from Gust ( km/h ) Pressure ( hPa ) Humid.( % ) Rainrate ( cm )
00:04 -1,9 -3,3   Calm   1023,2 90 -
00:08 -1,9 -3,3   Calm   1023,2 90 -
00:14 -2,0 -3,4   Calm   1023,2 90 -
00:18 -2,1 -3,5   Calm   1022,9 90 -
00:24 -2,1 -3,4   Calm   1022,9 91 -
00:28 -2,1 -3,4   Calm   1022,9 91 -
00:34 -2,2 -3,5   Calm   1023,2 91 -
00:38 -2,2 -3,5   Calm   1022,9 91 -
00:44 -2,4 -3,7   Calm   1023,2 91 -
00:48 -2,4 -3,7   Calm 1,6 1023,2 91 -
00:54 -2,6 -3,7   Calm 1,6 1023,2 92 -
00:58 -2,6 -3,7   Calm   1022,9 92 -
01:04 -2,7 -3,8   Calm   1022,9 92 -
01:08 -2,7 -3,8 1,4 West 1,6 1022,9 92 -
01:14 -2,8 -3,9   Calm   1023,2 92 -
01:18 -2,8 -3,9   Calm   1022,9 92 -
01:24 -3,0 -4,1   Calm   1022,9 92 -
01:28 -3,1 -4,2   Calm   1023,2 92 -
01:34 -3,2 -4,2   Calm   1023,2 93 -
01:38 -3,1 -4,1   Calm   1023,2 93 -
01:44 -3,1 -4,1   Calm   1023,2 93 -
01:48 -3,1 -4,1   Calm   1023,2 93 -
01:54 -3,3 -4,4   Calm 1,6 1023,2 92 -
01:58 -3,4 -4,5   Calm   1023,2 92 -
02:04 -3,6 -4,6   Calm   1023,2 93 -
02:08 -3,6 -4,6   Calm   1023,2 93 -
02:14 -3,6 -4,6   Calm   1023,2 93 -
02:18 -3,7 -4,7   Calm 1,6 1023,2 93 -
02:24 -3,9 -4,9   Calm   1023,2 93 -
02:28 -3,9 -4,9   Calm   1022,9 93 -
02:32 -3,9 -4,9   Calm   1022,9 93 -
02:39 -3,9 -4,7   Calm   1022,9 94 -
02:43 -3,9 -4,7   Calm 1,6 1022,9 94 -
02:49 -4,1 -5,1   Calm   1022,9 93 -
02:53 -4,2 -5,2   Calm 1,6 1022,9 93 -
02:59 -4,3 -5,1   Calm   1022,9 94 -
03:03 -4,3 -5,1   Calm   1022,9 94 -
03:09 -4,3 -5,1   Calm   1022,9 94 -
03:13 -4,4 -5,2   Calm 1,6 1022,9 94 -
03:19 -4,5 -5,3   Calm   1022,9 94 -
03:23 -4,5 -5,3   Calm 1,6 1022,9 94 -
03:29 -4,5 -5,3   Calm   1022,9 94 -
03:33 -4,7 -5,5   Calm   1022,9 94 -
03:39 -4,7 -5,5   Calm   1022,9 94 -
03:43 -4,8 -5,6 1,4 WNW 1,6 1023,2 94 -
03:49 -4,7 -5,4   Calm   1022,9 95 -
03:53 -4,5 -5,2   Calm   1022,9 95 -
03:59 -4,3 -5,0   Calm   1022,9 95 -
04:03 -4,5 -5,3   Calm   1022,9 94 -
04:09 -4,7 -5,5   Calm   1022,9 94 -
04:13 -4,7 -5,5 1,4 North 1,6 1022,9 94 -
04:19 -4,7 -5,4   Calm   1022,9 95 -
04:23 -4,7 -5,4   Calm   1022,9 95 -
04:29 -4,6 -5,3 1,4 NNW 1,6 1022,9 95 -
04:33 -4,7 -5,4   Calm   1022,9 95 -

Download your copy of this data-set  here

Our weather-data as stored at Weather Underground. Script developed by Jim McMurry. Adapted for the template by Leuven-Template.eu

You find our weather info also at:

Weather Underground

Equipment we use:

Weather-station
Davis Vue

Weather-program
Meteobridge

Weather-server
Raspberry PI 2 B+

Provider
1 and 1

Davis Vue

Meteobridge

Raspberry PI 2 B+

1 and 1